Date,Time,Wetness (Wet Dry or Ice),Wind Speed (m/s),Temperature (C),Humidity (%),Pressure (mb),Radiation (W/m^2)
2020-05-22,01:45:00,DRY,1.25,15.25,7.0,778.00,1.8
2020-05-22,01:50:00,DRY,1.27,15.17,7.0,778.00,1.6
2020-05-22,01:55:00,DRY,1.95,15.15,7.0,778.00,1.6
2020-05-22,02:00:00,DRY,2.00,15.20,7.0,778.00,0.5
2020-05-22,02:05:00,DRY,3.40,15.15,7.0,778.00,1.0
2020-05-22,02:10:00,DRY,2.23,15.37,7.0,778.00,1.2
2020-05-22,02:15:00,DRY,1.75,15.25,7.0,778.00,1.1
2020-05-22,02:20:00,DRY,1.23,15.20,7.0,778.00,1.5
2020-05-22,02:25:00,DRY,1.00,15.25,7.0,778.00,1.6
2020-05-22,02:30:00,DRY,2.30,15.23,6.7,778.00,1.5
2020-05-22,02:35:00,DRY,3.15,15.30,6.0,778.00,0.8
2020-05-22,02:40:00,DRY,1.40,15.43,6.0,778.00,1.0
2020-05-22,02:45:00,DRY,1.60,15.30,6.0,778.00,1.5
2020-05-22,02:50:00,DRY,1.97,15.23,6.0,778.00,1.0
2020-05-22,02:55:00,DRY,1.70,15.10,6.5,778.00,0.9
2020-05-22,03:00:00,DRY,1.70,15.20,6.0,778.00,1.4
2020-05-22,03:05:00,DRY,2.35,15.30,6.5,778.00,0.5
2020-05-22,03:10:00,DRY,2.80,15.45,6.0,778.00,1.5
2020-05-22,03:15:00,DRY,1.95,15.35,6.0,778.00,0.5
2020-05-22,03:20:00,DRY,1.90,15.27,6.3,778.00,1.2
2020-05-22,03:25:00,DRY,2.35,15.30,7.0,778.00,1.2
2020-05-22,03:30:00,DRY,2.67,15.30,7.0,778.00,1.2
2020-05-22,03:35:00,DRY,1.70,15.35,6.5,778.00,1.2
2020-05-22,03:40:00,DRY,1.50,15.23,6.7,778.00,1.2
2020-05-22,03:45:00,DRY,2.00,15.10,7.0,778.00,1.4
2020-05-22,03:50:00,DRY,1.27,15.10,6.3,778.00,1.1
2020-05-22,03:55:00,DRY,1.85,15.10,6.5,778.00,1.1
2020-05-22,04:00:00,DRY,2.00,14.87,6.7,778.00,1.0
2020-05-22,04:05:00,DRY,2.45,14.95,6.5,778.00,0.5
2020-05-22,04:10:00,DRY,1.97,14.97,6.3,778.00,0.9
2020-05-22,04:15:00,DRY,3.10,14.80,6.0,778.00,1.2
2020-05-22,04:20:00,DRY,2.03,14.87,6.3,778.00,1.3
2020-05-22,04:25:00,DRY,1.55,14.95,6.0,778.00,1.9
2020-05-22,04:30:00,DRY,2.17,14.50,6.7,778.00,1.6
2020-05-22,04:35:00,DRY,2.05,14.60,6.0,778.00,1.6
2020-05-22,04:40:00,DRY,2.30,14.87,6.3,778.00,1.3
2020-05-22,04:45:00,DRY,1.80,14.90,6.0,778.00,1.7
2020-05-22,04:50:00,DRY,1.93,15.07,6.0,778.00,0.6
2020-05-22,04:55:00,DRY,2.70,14.80,6.0,778.00,0.7
2020-05-22,05:00:00,DRY,3.03,14.90,6.0,778.00,1.9
2020-05-22,05:05:00,DRY,3.30,15.05,5.5,778.00,0.9
2020-05-22,05:10:00,DRY,3.37,14.83,6.0,778.00,1.3
2020-05-22,05:15:00,DRY,2.75,14.95,6.0,778.00,1.2
2020-05-22,05:20:00,DRY,2.67,14.60,6.0,778.00,0.8
2020-05-22,05:25:00,DRY,2.45,14.45,6.0,778.00,0.9
2020-05-22,05:30:00,DRY,3.40,14.47,6.0,778.00,1.1
2020-05-22,05:35:00,DRY,3.80,14.50,6.0,778.00,1.3
2020-05-22,05:40:00,DRY,3.80,14.63,6.0,778.00,1.2
2020-05-22,05:45:00,DRY,3.65,14.60,5.5,778.00,0.9
2020-05-22,05:50:00,DRY,3.77,14.57,6.0,778.00,1.2
2020-05-22,05:55:00,DRY,3.35,14.50,6.0,778.00,1.2
2020-05-22,06:00:00,DRY,1.97,14.27,6.0,778.00,1.9
2020-05-22,06:05:00,DRY,2.50,14.35,6.0,778.00,2.8
2020-05-22,06:10:00,DRY,2.13,14.23,6.0,778.00,4.2
2020-05-22,06:15:00,DRY,2.30,14.20,6.0,778.00,6.3
2020-05-22,06:20:00,DRY,3.57,14.50,5.3,778.00,12.5
2020-05-22,06:25:00,DRY,4.30,14.80,5.0,778.00,27.0
2020-05-22,06:30:00,DRY,2.47,14.77,4.7,778.00,44.4
2020-05-22,06:35:00,DRY,4.35,14.70,4.0,778.00,64.6
2020-05-22,06:40:00,DRY,4.37,15.10,4.0,778.00,88.1
2020-05-22,06:45:00,DRY,2.70,15.05,4.0,778.00,112.0
2020-05-22,06:50:00,DRY,4.67,15.13,5.0,778.00,131.9
2020-05-22,06:55:00,DRY,2.40,15.25,5.0,778.00,150.7
2020-05-22,07:00:00,DRY,4.17,15.20,5.0,778.00,171.6
2020-05-22,07:05:00,DRY,3.90,15.20,5.0,778.00,192.6
2020-05-22,07:10:00,DRY,5.13,15.30,5.0,778.00,214.3
2020-05-22,07:15:00,DRY,4.20,15.40,5.0,778.00,236.8
2020-05-22,07:20:00,DRY,3.20,15.27,5.3,778.00,259.4
2020-05-22,07:25:00,DRY,2.05,15.30,4.5,778.00,283.0
2020-05-22,07:30:00,DRY,2.47,15.63,5.0,778.00,305.8
2020-05-22,07:35:00,DRY,1.55,15.85,4.5,779.00,328.8
2020-05-22,07:40:00,DRY,2.60,16.07,4.7,778.33,352.2
2020-05-22,07:45:00,DRY,1.70,16.00,4.0,778.00,374.9
2020-05-22,07:50:00,DRY,1.97,15.93,4.7,778.67,396.5
2020-05-22,07:55:00,DRY,3.70,16.00,5.0,778.00,419.4
2020-05-22,08:00:00,DRY,3.97,16.27,4.7,778.00,442.4
2020-05-22,08:05:00,DRY,3.50,16.20,4.5,779.00,464.7
2020-05-22,08:10:00,DRY,2.77,16.20,5.0,779.00,486.3
2020-05-22,08:15:00,DRY,3.10,16.45,5.0,779.00,507.9
2020-05-22,08:20:00,DRY,3.50,16.33,5.7,779.00,530.1
2020-05-22,08:25:00,DRY,3.10,16.30,6.0,779.00,551.0
2020-05-22,08:30:00,DRY,1.47,16.37,6.0,779.00,574.5
2020-05-22,08:35:00,DRY,1.45,16.65,6.0,779.00,595.4
2020-05-22,08:40:00,DRY,1.70,16.63,6.3,779.00,616.8
2020-05-22,08:45:00,DRY,1.95,16.65,7.0,779.00,638.0
2020-05-22,08:50:00,DRY,2.77,16.53,6.7,779.00,659.3
2020-05-22,08:55:00,DRY,2.25,16.50,7.0,779.00,679.2
2020-05-22,09:00:00,DRY,3.00,16.43,7.3,779.00,699.4
2020-05-22,09:05:00,DRY,2.05,16.50,7.0,779.00,719.8
2020-05-22,09:10:00,DRY,1.60,17.00,7.7,779.00,738.1
2020-05-22,09:15:00,DRY,1.10,17.10,7.0,779.00,758.0
2020-05-22,09:20:00,DRY,2.10,17.27,7.7,779.00,778.8
2020-05-22,09:25:00,DRY,2.55,17.45,8.0,779.00,797.5
2020-05-22,09:30:00,DRY,2.17,17.00,7.3,779.00,813.5
2020-05-22,09:35:00,DRY,1.55,17.15,8.0,779.00,833.3
2020-05-22,09:40:00,DRY,2.37,17.43,9.0,779.00,849.8
2020-05-22,09:45:00,DRY,1.85,17.35,9.0,779.00,868.7
2020-05-22,09:50:00,DRY,0.83,17.30,8.0,779.00,886.5
2020-05-22,09:55:00,DRY,0.75,17.80,7.5,779.00,903.7
2020-05-22,10:00:00,DRY,1.47,17.77,8.0,779.00,916.8
2020-05-22,10:05:00,DRY,1.75,17.55,7.5,779.00,934.1
2020-05-22,10:10:00,DRY,2.53,18.30,8.3,779.00,949.2
2020-05-22,10:15:00,DRY,2.05,17.65,7.5,779.00,964.8
2020-05-22,10:20:00,DRY,1.70,17.97,7.7,779.00,979.0
2020-05-22,10:25:00,DRY,2.55,18.00,9.0,779.00,992.5
2020-05-22,10:30:00,DRY,2.07,18.00,8.3,779.00,1006.9
2020-05-22,10:35:00,DRY,2.10,18.00,10.0,779.00,1020.8
2020-05-22,10:40:00,DRY,1.67,18.80,9.7,779.00,1034.9
2020-05-22,10:45:00,DRY,3.00,18.75,8.0,779.00,1045.7
2020-05-22,10:50:00,DRY,1.93,19.47,10.0,779.00,1058.0
2020-05-22,10:55:00,DRY,1.75,19.30,9.0,779.00,1072.3
2020-05-22,11:00:00,DRY,1.87,19.67,8.0,779.00,1083.6
2020-05-22,11:05:00,DRY,1.75,18.90,7.5,779.00,1094.4
2020-05-22,11:10:00,DRY,1.80,18.50,8.3,779.00,1105.9
2020-05-22,11:15:00,DRY,1.70,18.45,9.0,779.00,1113.7
2020-05-22,11:20:00,DRY,1.10,19.10,7.7,779.33,1123.7
2020-05-22,11:25:00,DRY,2.10,19.15,8.0,779.00,1134.7
2020-05-22,11:30:00,DRY,1.80,18.67,7.7,779.00,1144.2
2020-05-22,11:35:00,DRY,1.20,18.25,8.0,779.00,1152.9
2020-05-22,11:40:00,DRY,1.07,18.87,8.0,779.00,1158.7
2020-05-22,11:45:00,DRY,2.50,19.10,7.5,779.00,1166.0
2020-05-22,11:50:00,DRY,1.73,18.87,9.0,779.00,1173.0
2020-05-22,11:55:00,DRY,1.80,19.40,8.5,779.00,1176.6
2020-05-22,12:00:00,DRY,1.80,19.13,9.3,779.33,1182.3
2020-05-22,12:05:00,DRY,1.10,18.70,10.5,779.00,1188.8
2020-05-22,12:10:00,DRY,1.17,18.20,10.7,779.33,1195.9
2020-05-22,12:15:00,DRY,2.05,18.45,10.5,779.00,1197.7
2020-05-22,12:20:00,DRY,1.73,19.47,10.7,779.00,1202.1
2020-05-22,12:25:00,DRY,0.90,19.15,10.0,779.00,1207.4
2020-05-22,12:30:00,DRY,1.57,18.70,10.3,779.00,1207.2
2020-05-22,12:35:00,DRY,1.45,19.85,10.5,779.50,1209.8
2020-05-22,12:40:00,DRY,3.50,20.37,9.3,779.00,1211.5
2020-05-22,12:45:00,DRY,1.10,19.80,11.0,779.00,1215.2
2020-05-22,12:50:00,DRY,1.93,19.63,10.0,779.00,1212.3
2020-05-22,12:55:00,DRY,4.55,19.55,13.5,779.00,1215.0
2020-05-22,13:00:00,DRY,1.33,19.27,10.3,779.67,1218.3
2020-05-22,13:05:00,DRY,1.20,18.75,9.0,779.50,1220.0
2020-05-22,13:10:00,DRY,2.37,18.57,12.0,779.67,1217.5
2020-05-22,13:15:00,DRY,1.85,18.75,13.0,780.00,1216.8
2020-05-22,13:20:00,DRY,1.63,18.43,12.3,779.67,1216.4
2020-05-22,13:25:00,DRY,2.55,17.95,13.0,779.50,1215.3
2020-05-22,13:30:00,DRY,2.20,17.40,13.0,779.00,1213.4
2020-05-22,13:35:00,DRY,2.70,18.70,13.0,779.00,1210.1
2020-05-22,13:40:00,DRY,2.20,17.97,14.0,779.00,1209.4
2020-05-22,13:45:00,DRY,1.50,18.60,13.0,779.50,1207.9
2020-05-22,13:50:00,DRY,1.53,18.30,15.3,779.33,1205.0
2020-05-22,13:55:00,DRY,1.40,18.85,11.5,779.00,1201.8
2020-05-22,14:00:00,DRY,1.57,18.50,12.3,779.33,1198.0
2020-05-22,14:05:00,DRY,1.00,18.30,14.0,779.00,1190.0
2020-05-22,14:10:00,DRY,1.13,17.90,15.7,779.00,1186.6
2020-05-22,14:15:00,DRY,2.00,18.00,15.5,779.00,1181.2
2020-05-22,14:20:00,DRY,1.27,18.33,14.3,779.00,1175.6
2020-05-22,14:25:00,DRY,1.25,19.05,10.5,779.00,1169.0
2020-05-22,14:30:00,DRY,2.63,18.73,12.0,779.00,1160.5
2020-05-22,14:35:00,DRY,2.00,18.10,13.5,779.00,1154.1
2020-05-22,14:40:00,DRY,1.73,18.67,13.0,779.00,1142.2
2020-05-22,14:45:00,DRY,0.85,19.15,10.0,779.00,1138.2
2020-05-22,14:50:00,DRY,3.97,20.07,9.7,779.00,1125.8
2020-05-22,14:55:00,DRY,3.15,20.20,9.5,779.00,1119.2
2020-05-22,15:00:00,DRY,3.57,20.30,10.0,779.00,1108.4
2020-05-22,15:05:00,DRY,1.25,18.70,9.5,779.00,1096.0
2020-05-22,15:10:00,DRY,2.53,19.30,11.0,779.00,1084.2
2020-05-22,15:15:00,DRY,1.65,19.55,11.0,779.00,1074.6
2020-05-22,15:20:00,DRY,2.37,18.53,10.0,779.00,1063.2
2020-05-22,15:25:00,DRY,2.10,19.35,9.5,779.00,1049.0
2020-05-22,15:30:00,DRY,1.83,18.33,12.0,779.00,1037.2
2020-05-22,15:35:00,DRY,2.75,18.80,9.5,779.00,1023.8
2020-05-22,15:40:00,DRY,1.77,18.03,9.3,779.00,1009.7
2020-05-22,15:45:00,DRY,2.45,18.65,9.5,779.00,995.6
2020-05-22,15:50:00,DRY,1.33,18.40,12.7,779.00,980.0
2020-05-22,15:55:00,DRY,1.75,17.45,12.5,779.00,965.1
2020-05-22,16:00:00,DRY,1.97,18.27,10.0,779.00,950.3
2020-05-22,16:05:00,DRY,2.70,18.35,12.0,779.00,934.4
2020-05-22,16:10:00,DRY,2.73,18.20,12.3,779.00,917.2
2020-05-22,16:15:00,DRY,4.95,18.00,12.0,779.00,902.2
2020-05-22,16:20:00,DRY,3.87,17.53,13.3,779.00,883.9
2020-05-22,16:25:00,DRY,2.10,17.55,11.5,778.50,866.9
2020-05-22,16:30:00,DRY,2.87,18.37,14.7,779.00,847.8
2020-05-22,16:35:00,DRY,3.80,17.60,10.5,779.00,830.5
2020-05-22,16:40:00,DRY,3.50,17.73,11.7,779.00,814.6
2020-05-22,16:45:00,DRY,1.25,17.60,12.0,779.00,795.5
2020-05-22,16:50:00,DRY,3.77,17.57,10.3,779.00,776.8
2020-05-22,16:55:00,DRY,4.40,17.75,11.0,779.00,758.8
2020-05-22,17:00:00,DRY,3.00,17.00,10.7,779.00,738.4
2020-05-22,17:05:00,DRY,5.00,16.80,10.5,779.00,719.4
2020-05-22,17:10:00,DRY,2.60,17.37,10.7,779.00,699.3
2020-05-22,17:15:00,DRY,4.45,17.10,13.5,779.00,679.3
2020-05-22,17:20:00,DRY,4.53,17.33,11.0,779.00,658.4
2020-05-22,17:25:00,DRY,4.15,17.05,10.0,778.00,637.2
2020-05-22,17:30:00,DRY,4.17,17.13,10.0,779.00,616.4
2020-05-22,17:35:00,DRY,4.55,16.75,10.0,779.00,595.0
2020-05-22,17:40:00,DRY,1.90,17.13,10.0,779.00,573.0
2020-05-22,17:45:00,DRY,3.80,17.20,10.5,779.00,552.7
2020-05-22,17:50:00,DRY,3.40,16.93,9.7,779.00,529.1
2020-05-22,17:55:00,DRY,3.80,16.70,9.0,779.00,502.8
2020-05-22,18:00:00,DRY,4.63,16.93,10.0,778.67,485.9
2020-05-22,18:05:00,DRY,2.60,16.85,9.5,779.00,463.8
2020-05-22,18:10:00,DRY,3.63,16.80,10.0,779.00,441.1
2020-05-22,18:15:00,DRY,5.80,16.60,10.0,779.00,417.9
2020-05-22,18:20:00,DRY,4.73,16.60,10.7,779.00,396.2
2020-05-22,18:25:00,DRY,4.25,16.10,11.0,779.00,373.5
2020-05-22,18:30:00,DRY,4.50,16.33,12.0,778.33,350.9
2020-05-22,18:35:00,DRY,2.85,16.40,12.0,779.00,328.0
2020-05-22,18:40:00,DRY,3.27,16.17,12.3,779.00,306.9
2020-05-22,18:45:00,DRY,3.55,15.80,13.0,779.00,284.1
2020-05-22,18:50:00,DRY,4.07,15.70,13.0,779.00,262.0
2020-05-22,18:55:00,DRY,3.15,15.65,13.0,778.50,240.1
2020-05-22,19:00:00,DRY,2.40,15.83,13.0,779.00,218.7
2020-05-22,19:05:00,DRY,2.25,15.90,13.0,778.50,198.7
2020-05-22,19:10:00,DRY,1.73,16.13,13.7,779.00,177.5
2020-05-22,19:15:00,DRY,1.25,16.45,13.0,779.00,158.1
2020-05-22,19:20:00,DRY,1.77,15.77,13.0,779.00,138.4
2020-05-22,19:25:00,DRY,3.35,15.45,13.0,779.00,114.5
2020-05-22,19:30:00,DRY,4.37,15.37,14.0,779.00,87.2
2020-05-22,19:35:00,DRY,3.05,15.35,14.0,779.00,65.2
2020-05-22,19:40:00,DRY,2.43,15.23,14.0,779.00,46.6
2020-05-22,19:45:00,DRY,3.00,15.00,14.0,779.00,28.9
2020-05-22,19:50:00,DRY,3.90,15.17,14.0,779.00,20.7
2020-05-22,19:55:00,DRY,2.95,15.10,14.5,779.00,12.6
2020-05-22,20:00:00,DRY,3.07,14.93,14.3,779.00,9.2
2020-05-22,20:05:00,DRY,4.85,14.95,15.0,779.00,4.4
2020-05-22,20:10:00,DRY,3.30,14.97,15.0,779.00,2.4
2020-05-22,20:15:00,DRY,3.50,15.40,13.5,779.00,1.3
2020-05-22,20:20:00,DRY,3.63,15.50,13.0,779.00,1.3
2020-05-22,20:25:00,DRY,5.10,15.55,13.5,779.00,1.6
2020-05-22,20:30:00,DRY,5.37,15.13,15.3,779.00,1.2
2020-05-22,20:35:00,DRY,5.10,15.00,15.5,779.00,0.7
2020-05-22,20:40:00,DRY,2.97,14.93,15.0,779.00,1.6
2020-05-22,20:45:00,DRY,1.55,14.85,14.0,779.00,1.4
2020-05-22,20:50:00,DRY,3.43,15.13,13.0,779.00,1.0
2020-05-22,20:55:00,DRY,3.05,15.15,12.5,779.00,0.9
2020-05-22,21:00:00,DRY,3.47,15.53,10.7,779.00,1.5
2020-05-22,21:05:00,DRY,2.10,15.60,11.0,779.00,1.4
2020-05-22,21:10:00,DRY,2.80,15.23,12.7,779.00,1.2
2020-05-22,21:15:00,DRY,1.90,15.15,12.0,779.00,0.7
2020-05-22,21:20:00,DRY,3.30,15.60,11.3,779.00,0.8
2020-05-22,21:25:00,DRY,2.75,15.30,13.0,779.00,1.8
2020-05-22,21:30:00,DRY,4.27,15.50,12.0,779.00,1.1
2020-05-22,21:35:00,DRY,4.70,15.65,12.5,779.00,1.1
2020-05-22,21:40:00,DRY,3.53,15.50,13.0,779.00,1.2
2020-05-22,21:45:00,DRY,5.20,15.60,12.5,780.00,1.6
2020-05-22,21:50:00,DRY,2.20,15.47,13.3,779.67,1.3
2020-05-22,21:55:00,DRY,2.30,15.55,13.5,780.00,1.9
2020-05-22,22:00:00,DRY,4.53,15.57,14.7,780.00,1.1
2020-05-22,22:05:00,DRY,2.70,15.65,15.0,780.00,0.9
2020-05-22,22:10:00,DRY,3.77,15.47,14.3,780.00,1.1
2020-05-22,22:15:00,DRY,2.55,15.40,15.0,780.00,0.8
2020-05-22,22:20:00,DRY,1.33,15.27,14.7,780.00,1.0
2020-05-22,22:25:00,DRY,2.60,15.20,15.0,780.00,0.7
2020-05-22,22:30:00,DRY,2.47,15.23,16.3,780.00,1.4
2020-05-22,22:35:00,DRY,1.55,15.20,16.5,780.00,1.1
2020-05-22,22:40:00,DRY,2.33,15.23,17.0,780.00,1.2
2020-05-22,22:45:00,DRY,1.75,15.35,17.5,780.00,1.1
2020-05-22,22:50:00,DRY,1.43,15.33,17.0,780.00,0.7
2020-05-22,22:55:00,DRY,2.00,15.80,16.5,780.00,1.4
2020-05-22,23:00:00,DRY,1.77,16.03,15.0,780.00,2.2
2020-05-22,23:05:00,DRY,1.75,15.85,16.0,780.00,2.3
2020-05-22,23:10:00,DRY,1.17,15.43,16.7,780.00,1.5
2020-05-22,23:15:00,DRY,1.30,15.40,16.5,780.00,1.1
2020-05-22,23:20:00,DRY,0.87,15.70,16.7,780.00,1.7
2020-05-22,23:25:00,DRY,1.80,15.50,16.0,780.00,0.9
2020-05-22,23:30:00,DRY,1.33,15.37,16.3,780.00,1.3
2020-05-22,23:35:00,DRY,2.50,15.35,17.0,780.00,0.8
2020-05-22,23:40:00,DRY,1.53,15.47,17.0,780.00,0.7
2020-05-22,23:45:00,DRY,1.20,15.75,16.0,780.00,1.8
2020-05-22,23:50:00,DRY,1.80,15.53,16.7,780.00,1.0
2020-05-22,23:55:00,DRY,1.30,15.30,17.0,780.00,0.9
2020-05-23,00:00:00,DRY,2.27,15.70,17.0,780.00,0.9
2020-05-23,00:05:00,DRY,1.65,15.75,17.0,780.00,1.4
2020-05-23,00:10:00,DRY,1.30,15.60,17.0,780.00,1.1
2020-05-23,00:15:00,DRY,1.20,15.80,17.0,780.00,1.6
2020-05-23,00:20:00,DRY,1.37,15.60,17.0,780.00,1.0
2020-05-23,00:25:00,DRY,0.45,15.60,17.0,780.00,0.6
2020-05-23,00:30:00,DRY,0.70,15.87,16.0,780.00,1.2
2020-05-23,00:35:00,DRY,0.45,15.65,16.5,780.00,0.9
2020-05-23,00:40:00,DRY,0.80,15.67,16.7,780.00,1.2
2020-05-23,00:45:00,DRY,1.10,15.65,17.0,780.00,2.4
2020-05-23,00:50:00,DRY,1.87,15.73,17.0,780.00,1.0
2020-05-23,00:55:00,DRY,2.55,15.55,17.0,780.00,1.6
2020-05-23,01:00:00,DRY,1.53,15.50,17.0,780.00,2.7
2020-05-23,01:05:00,DRY,2.00,16.10,16.0,780.00,0.7
2020-05-23,01:10:00,DRY,2.30,16.23,16.0,780.00,1.0
2020-05-23,01:15:00,DRY,2.35,16.50,16.0,780.00,1.6
2020-05-23,01:20:00,DRY,4.37,16.47,15.7,780.00,1.3
2020-05-23,01:25:00,DRY,2.20,15.90,17.0,780.00,0.6
2020-05-23,01:30:00,DRY,3.00,16.23,16.0,779.67,1.2
2020-05-23,01:35:00,DRY,2.25,15.90,17.0,779.00,1.0
2020-05-23,01:40:00,DRY,2.37,15.80,17.0,779.00,0.6
2020-05-23,01:45:00,DRY,2.20,15.40,19.0,779.00,1.4
2020-05-23,01:50:00,DRY,3.53,15.83,17.7,779.33,0.9
2020-05-23,01:55:00,DRY,2.65,15.80,18.0,779.00,0.8
2020-05-23,02:00:00,DRY,2.60,15.87,18.0,779.33,1.2
2020-05-23,02:05:00,DRY,2.85,15.30,21.5,779.00,0.8
2020-05-23,02:10:00,DRY,1.23,14.93,21.0,779.00,0.9
2020-05-23,02:15:00,DRY,0.90,15.50,20.5,779.00,1.1
2020-05-23,02:20:00,DRY,1.33,14.93,22.3,779.00,1.9
2020-05-23,02:25:00,DRY,1.65,14.65,22.0,779.00,1.8
2020-05-23,02:30:00,DRY,2.47,15.00,20.7,779.00,1.3
2020-05-23,02:35:00,DRY,1.80,14.60,22.5,779.00,1.1
2020-05-23,02:40:00,DRY,1.17,14.97,21.3,779.00,1.7
2020-05-23,02:45:00,DRY,1.55,15.20,20.5,779.00,1.4
2020-05-23,02:50:00,DRY,1.67,15.37,20.0,779.00,1.8
2020-05-23,02:55:00,DRY,0.75,15.40,19.5,779.00,1.6
2020-05-23,03:00:00,DRY,0.33,15.10,20.7,779.00,1.4
2020-05-23,03:05:00,DRY,3.40,15.60,19.5,779.00,0.9
2020-05-23,03:10:00,DRY,1.40,15.97,18.0,779.00,0.9
2020-05-23,03:15:00,DRY,1.50,15.80,19.0,779.00,1.4
2020-05-23,03:20:00,DRY,1.23,15.87,18.3,779.00,0.7
2020-05-23,03:25:00,DRY,3.65,15.80,18.5,779.00,1.4
2020-05-23,03:30:00,DRY,2.57,16.43,17.3,779.00,1.5
2020-05-23,03:35:00,DRY,2.90,15.85,18.5,779.00,1.2
2020-05-23,03:40:00,DRY,2.43,15.83,19.0,779.00,1.6
2020-05-23,03:45:00,DRY,1.75,16.00,19.5,779.00,1.7
2020-05-23,03:50:00,DRY,2.77,15.80,19.3,779.00,1.3
2020-05-23,03:55:00,DRY,1.70,15.60,20.5,779.00,1.8
2020-05-23,04:00:00,DRY,1.90,15.47,21.0,779.00,1.0
2020-05-23,04:05:00,DRY,2.40,15.55,20.5,779.00,0.9
2020-05-23,04:10:00,DRY,1.10,15.60,20.7,779.00,1.6
2020-05-23,04:15:00,DRY,3.10,15.80,19.5,779.00,0.8
2020-05-23,04:20:00,DRY,2.73,15.93,19.3,779.00,1.0
2020-05-23,04:25:00,DRY,1.30,16.05,19.5,779.00,1.5
2020-05-23,04:30:00,DRY,1.23,16.03,19.7,779.00,1.4
2020-05-23,04:35:00,DRY,0.80,16.35,19.0,779.00,1.4
2020-05-23,04:40:00,DRY,1.43,15.70,20.7,779.00,1.6
2020-05-23,04:45:00,DRY,1.45,15.70,21.0,779.00,1.9
2020-05-23,04:50:00,DRY,2.07,15.37,22.3,779.00,1.3
2020-05-23,04:55:00,DRY,3.15,15.55,21.5,779.00,0.6
2020-05-23,05:00:00,DRY,1.80,15.20,23.7,779.00,1.6
2020-05-23,05:05:00,DRY,1.85,14.95,24.0,779.00,1.5
2020-05-23,05:10:00,DRY,2.40,15.50,22.0,779.00,1.9
2020-05-23,05:15:00,DRY,3.90,15.65,22.5,779.00,1.1
2020-05-23,05:20:00,DRY,2.90,16.10,20.3,779.00,0.5
2020-05-23,05:25:00,DRY,2.65,15.85,21.5,779.00,1.1
2020-05-23,05:30:00,DRY,2.73,15.70,21.7,779.00,1.6
2020-05-23,05:35:00,DRY,2.00,15.65,22.0,779.00,1.9
2020-05-23,05:40:00,DRY,2.13,15.87,21.3,779.00,0.7
2020-05-23,05:45:00,DRY,3.70,15.70,21.0,779.00,1.6
2020-05-23,05:50:00,DRY,1.97,16.07,20.3,779.00,1.3
2020-05-23,05:55:00,DRY,2.00,15.75,21.5,779.00,0.8
2020-05-23,06:00:00,DRY,1.00,15.77,21.3,779.00,1.7
2020-05-23,06:05:00,DRY,1.60,15.40,22.5,779.00,2.2
2020-05-23,06:10:00,DRY,3.90,15.87,21.7,779.00,4.1
2020-05-23,06:15:00,DRY,3.50,16.15,21.0,779.00,5.7
2020-05-23,06:20:00,DRY,2.57,15.93,21.0,779.00,8.6
2020-05-23,06:25:00,DRY,4.20,15.85,21.5,779.00,13.6
2020-05-23,06:30:00,DRY,1.90,15.53,22.3,779.00,26.5
2020-05-23,06:35:00,DRY,4.30,15.50,22.5,779.00,32.0
2020-05-23,06:40:00,DRY,2.10,16.10,21.0,779.00,67.0
2020-05-23,06:45:00,DRY,3.10,16.30,21.0,779.00,87.2
2020-05-23,06:50:00,DRY,2.20,16.27,21.0,779.00,94.7
2020-05-23,06:55:00,DRY,2.90,16.25,21.0,779.00,105.2
2020-05-23,07:00:00,DRY,1.87,16.30,21.3,779.67,127.7
2020-05-23,07:05:00,DRY,1.35,16.55,20.5,779.00,168.4
2020-05-23,07:10:00,DRY,1.90,16.73,20.7,780.00,190.4
2020-05-23,07:15:00,DRY,2.50,16.90,20.5,780.00,211.9
2020-05-23,07:20:00,DRY,0.93,16.77,21.0,780.00,234.7
2020-05-23,07:25:00,DRY,2.65,16.95,20.5,780.00,255.4
2020-05-23,07:30:00,DRY,2.00,16.97,20.7,780.00,278.9
2020-05-23,07:35:00,DRY,2.85,17.00,20.0,780.00,301.5
2020-05-23,07:40:00,DRY,1.70,17.10,20.0,780.00,325.9
2020-05-23,07:45:00,DRY,1.30,17.35,20.5,780.00,352.0
2020-05-23,07:50:00,DRY,2.27,17.57,19.7,780.00,371.9
2020-05-23,07:55:00,DRY,2.10,17.45,20.0,780.00,395.4
2020-05-23,08:00:00,DRY,2.05,17.65,20.0,780.00,415.1
2020-05-23,08:05:00,,,,,,
2020-05-23,08:10:00,DRY,1.90,17.80,19.0,780.00,466.5
2020-05-23,08:15:00,,,,,,
2020-05-23,08:20:00,,,,,,
2020-05-23,08:25:00,,,,,,
2020-05-23,08:30:00,,,,,,
2020-05-23,08:35:00,DRY,2.70,18.40,19.0,780.00,578.8
2020-05-23,08:40:00,DRY,1.80,18.57,19.0,780.00,595.6
2020-05-23,08:45:00,DRY,1.25,18.45,18.5,780.00,617.0
2020-05-23,08:50:00,DRY,2.37,17.93,18.7,780.00,637.9
2020-05-23,08:55:00,DRY,1.15,18.20,19.0,780.00,661.3
2020-05-23,09:00:00,,,,,,
2020-05-23,09:05:00,DRY,2.90,18.90,19.0,780.00,706.1
2020-05-23,09:10:00,DRY,2.03,18.97,18.0,780.00,721.2
2020-05-23,09:15:00,DRY,0.95,18.90,18.5,780.00,741.0
2020-05-23,09:20:00,DRY,1.70,18.73,19.3,780.00,760.3
2020-05-23,09:25:00,DRY,1.75,18.65,18.0,780.00,780.1
2020-05-23,09:30:00,DRY,1.37,18.67,18.3,780.00,796.7
2020-05-23,09:35:00,DRY,1.80,19.25,19.0,780.00,817.2
2020-05-23,09:40:00,DRY,1.60,19.03,19.7,780.00,833.5
2020-05-23,09:45:00,DRY,1.75,19.45,18.5,780.00,852.8
2020-05-23,09:50:00,DRY,1.77,19.27,17.7,780.00,872.1
2020-05-23,09:55:00,DRY,1.55,19.50,18.0,780.00,889.1
2020-05-23,10:00:00,DRY,1.53,19.60,18.0,780.00,905.7
2020-05-23,10:05:00,DRY,1.40,19.35,18.5,780.00,919.6
2020-05-23,10:10:00,DRY,1.20,19.73,17.7,780.00,933.5
2020-05-23,10:15:00,DRY,3.45,20.20,18.5,780.00,948.5
2020-05-23,10:20:00,DRY,1.77,20.20,18.3,780.00,967.3
2020-05-23,10:25:00,DRY,2.80,19.75,17.0,780.00,981.3
2020-05-23,10:30:00,DRY,2.23,20.07,18.0,780.00,995.2
2020-05-23,10:35:00,DRY,0.55,20.20,17.5,780.00,1006.2
2020-05-23,10:40:00,DRY,2.13,19.63,17.7,780.00,1021.3
2020-05-23,10:45:00,DRY,1.60,20.40,18.0,780.00,1034.9
2020-05-23,10:50:00,DRY,1.77,20.37,18.7,780.00,1050.1
2020-05-23,10:55:00,DRY,2.10,20.35,19.0,780.00,1062.4
2020-05-23,11:00:00,DRY,2.93,20.30,17.3,780.00,1073.1
2020-05-23,11:05:00,DRY,2.45,20.35,18.0,780.00,1085.2
2020-05-23,11:10:00,DRY,1.77,19.97,18.3,780.00,1095.6
2020-05-23,11:15:00,DRY,2.15,20.65,18.5,780.00,1106.0
2020-05-23,11:20:00,DRY,1.37,20.70,18.3,780.00,1108.4
2020-05-23,11:25:00,DRY,1.75,20.75,18.5,780.00,1118.5
2020-05-23,11:30:00,DRY,1.67,20.97,17.7,780.00,1126.3
2020-05-23,11:35:00,DRY,3.15,20.45,19.0,780.00,1135.3
2020-05-23,11:40:00,DRY,1.90,21.13,17.7,780.00,1139.1
2020-05-23,11:45:00,DRY,1.75,20.60,17.5,780.00,1133.1
2020-05-23,11:50:00,DRY,2.40,20.80,17.3,780.00,1147.5
2020-05-23,11:55:00,DRY,1.90,20.90,17.5,780.00,1165.4
2020-05-23,12:00:00,DRY,2.23,21.07,18.7,780.00,1170.0
2020-05-23,12:05:00,DRY,2.05,20.65,17.5,780.00,1175.2
2020-05-23,12:10:00,DRY,1.93,21.53,18.3,780.00,1177.2
2020-05-23,12:15:00,DRY,1.20,21.70,18.5,780.00,1182.3
2020-05-23,12:20:00,DRY,1.63,21.87,18.0,780.00,1185.3
2020-05-23,12:25:00,DRY,1.45,21.40,17.5,780.00,1190.8
2020-05-23,12:30:00,DRY,1.23,21.00,17.7,780.00,1191.8
2020-05-23,12:35:00,DRY,2.75,21.10,17.5,780.00,1193.8
2020-05-23,12:40:00,DRY,1.00,20.87,18.0,780.00,1196.1
2020-05-23,12:45:00,DRY,3.75,21.45,18.5,780.00,1196.3
2020-05-23,12:50:00,DRY,2.10,20.80,17.7,780.00,1198.8
2020-05-23,12:55:00,DRY,2.30,21.60,17.0,780.00,1199.9
2020-05-23,13:00:00,DRY,2.60,22.00,17.0,780.00,1200.5
2020-05-23,13:05:00,DRY,1.55,21.80,18.5,780.00,1200.5
2020-05-23,13:10:00,DRY,1.70,21.43,17.7,780.00,1202.0
2020-05-23,13:15:00,DRY,2.35,20.90,18.5,780.00,1198.3
2020-05-23,13:20:00,DRY,2.10,20.93,18.7,780.00,1200.0
2020-05-23,13:25:00,DRY,1.85,21.00,19.5,780.00,1200.4
2020-05-23,13:30:00,DRY,3.80,21.90,19.0,780.00,1198.6
2020-05-23,13:35:00,DRY,2.90,21.10,17.0,780.00,1196.2
2020-05-23,13:40:00,DRY,2.27,20.47,18.3,780.00,1192.9
2020-05-23,13:45:00,DRY,1.55,21.15,18.0,780.00,1190.0
2020-05-23,13:50:00,DRY,2.97,21.13,18.7,780.00,1189.0
2020-05-23,13:55:00,DRY,1.85,20.85,18.0,780.00,1183.8
2020-05-23,14:00:00,DRY,1.70,21.37,19.3,780.00,1181.4
2020-05-23,14:05:00,DRY,3.60,21.45,18.5,780.00,1178.1
2020-05-23,14:10:00,DRY,4.73,20.90,19.0,780.00,1171.3
2020-05-23,14:15:00,DRY,2.25,20.70,18.5,780.00,1162.7
2020-05-23,14:20:00,DRY,1.33,21.03,19.3,780.00,1158.1
2020-05-23,14:25:00,DRY,2.20,21.25,19.0,780.00,1149.7
2020-05-23,14:30:00,DRY,2.27,20.77,19.0,780.00,1143.0
2020-05-23,14:35:00,DRY,0.95,21.10,19.5,780.00,1138.8
2020-05-23,14:40:00,DRY,1.40,21.23,19.7,780.00,1127.9
2020-05-23,14:45:00,DRY,1.20,21.05,19.0,780.00,1119.8
2020-05-23,14:50:00,DRY,4.00,20.97,20.7,780.00,1109.3
2020-05-23,14:55:00,DRY,1.50,20.50,19.5,780.00,1097.8
2020-05-23,15:00:00,DRY,2.13,20.93,20.7,780.00,1089.8
2020-05-23,15:05:00,DRY,2.60,22.20,19.5,780.00,1077.9
2020-05-23,15:10:00,DRY,1.10,21.73,20.0,780.00,1070.4
2020-05-23,15:15:00,DRY,2.75,22.35,20.0,780.00,1053.5
2020-05-23,15:20:00,DRY,1.13,22.33,18.7,780.00,1047.1
2020-05-23,15:25:00,DRY,3.35,21.85,20.0,780.00,1026.5
2020-05-23,15:30:00,DRY,3.00,21.17,21.3,780.00,1014.4
2020-05-23,15:35:00,DRY,3.20,20.90,21.5,780.00,1000.8
2020-05-23,15:40:00,DRY,3.37,21.63,21.0,780.00,988.1
2020-05-23,15:45:00,DRY,2.95,21.75,20.0,780.00,972.8
2020-05-23,15:50:00,DRY,2.60,21.57,19.3,780.00,963.1
2020-05-23,15:55:00,DRY,3.15,20.85,19.5,780.00,948.0
2020-05-23,16:00:00,DRY,2.40,21.30,20.0,780.00,929.8
2020-05-23,16:05:00,DRY,2.95,21.80,19.0,780.00,913.4